Weather History for Scappoose, OR

Change the Weather History Date:

Thursday, September 12, 2013

  Actual Average Record
Temperature  
Mean Temperature 69 °F -  
Max Temperature 82 °F - 87 °F (2002)
Min Temperature 57 °F - 44 °F (2010)
Degree Days  
Heating Degree Days 0    
Month to date heating degree days 0  
Since 1 July heating degree days 24  
Cooling Degree Days 5    
Month to date cooling degree days 65  
Year to date cooling degree days 389  
Growing Degree Days 19 (Base 50)    
Moisture  
Dew Point 58 °F    
Average Humidity 74    
Maximum Humidity 93    
Minimum Humidity 54    
Precipitation  
Precipitation 0.00 in - 0.05 in (2004)
Month to date precipitation 1.96  
Year to date precipitation 16.50  
Sea Level Pressure  
Sea Level Pressure 29.96 in    
Wind  
Wind Speed 2 mph (North)    
Max Wind Speed 12 mph    
Max Gust Speed 14 mph    
Visibility 10 miles    
Events      
T = Trace of Precipitation, MM = Missing Value Source: NWS Daily Summary

Daily Weather History Graph

Daily Weather History Graph

Search for Another Location

Airport:

Trip Planner

Search our weather history database for the weather conditions in past years. The results will help you decide how hot, cold, wet, or windy it might be!

Date:

Astronomy

Sep. 12, 2013 Rise Set
Actual Time 6:46 AM PDT 7:27 PM PDT
Civil Twilight 6:16 AM PDT 7:57 PM PDT
Nautical Twilight 5:40 AM PDT 8:33 PM PDT
Astronomical Twilight 5:03 AM PDT 9:10 PM PDT
Moon 2:39 PM PDT (9/12) No Moon Set
Length of Visible Light 13h 41m
Length of Day
12h 41m
Waxing Crescent, 51% of the Moon is Illuminated
Sep 12
Waxing Crescent
Sep 19
Full
Sep 26
Last Quarter
Oct 4
New
Oct 11
First Quarter

Hourly Weather History & Observations

Time (PDT) Temp. Heat Index Dew Point Humidity Pressure Visibility Wind Dir Wind Speed Gust Speed Precip Events Conditions
12:53 AM 61.0 °F - 57.9 °F 90% 29.94 in 10.0 mi Calm Calm - N/A   Clear
1:53 AM 61.0 °F - 57.9 °F 90% 29.95 in 10.0 mi Calm Calm - N/A   Clear
2:53 AM 57.9 °F - 55.9 °F 93% 29.97 in 10.0 mi Calm Calm - N/A   Clear
3:53 AM 57.9 °F - 55.0 °F 90% 29.98 in 10.0 mi Calm Calm - N/A   Clear
4:27 AM 57.2 °F - 55.4 °F 94% 29.98 in 10.0 mi Calm Calm - N/A   Mostly Cloudy
4:53 AM 60.1 °F - 57.0 °F 90% 29.99 in 10.0 mi North 3.5 mph - N/A   Overcast
5:53 AM 59.0 °F - 55.9 °F 90% 29.99 in 10.0 mi Calm Calm - N/A   Mostly Cloudy
6:07 AM 59.0 °F - 55.4 °F 88% 29.99 in 10.0 mi Calm Calm - N/A   Scattered Clouds
6:28 AM 57.2 °F - 55.4 °F 94% 30.00 in 10.0 mi North 3.5 mph - N/A   Mostly Cloudy
6:43 AM 57.2 °F - 55.4 °F 94% 30.00 in 10.0 mi North 4.6 mph - N/A   Scattered Clouds
6:53 AM 57.9 °F - 55.0 °F 90% 30.00 in 10.0 mi North 3.5 mph - N/A   Partly Cloudy
7:29 AM 59.0 °F - 55.4 °F 88% 30.01 in 10.0 mi North 3.5 mph - N/A   Partly Cloudy
7:44 AM 60.8 °F - 55.4 °F 82% 30.01 in 10.0 mi North 4.6 mph - N/A   Mostly Cloudy
7:53 AM 60.1 °F - 55.9 °F 86% 30.01 in 10.0 mi North 6.9 mph - N/A   Overcast
8:53 AM 62.1 °F - 55.9 °F 80% 30.01 in 10.0 mi Calm Calm - N/A   Overcast
9:53 AM 62.1 °F - 57.0 °F 84% 30.00 in 10.0 mi Calm Calm - N/A   Overcast
10:53 AM 64.0 °F - 57.0 °F 78% 29.99 in 10.0 mi Calm Calm - N/A   Overcast
11:41 AM 66.2 °F - 57.2 °F 73% 29.98 in 10.0 mi Calm Calm - N/A   Overcast
11:53 AM 66.0 °F - 57.9 °F 75% 29.98 in 10.0 mi East 3.5 mph - N/A   Mostly Cloudy
12:07 PM 68.0 °F - 59.0 °F 73% 29.97 in 10.0 mi ESE 3.5 mph - N/A   Scattered Clouds
12:53 PM 70.0 °F - 60.1 °F 71% 29.96 in 10.0 mi Calm Calm - N/A   Clear
1:53 PM 73.9 °F - 61.0 °F 64% 29.94 in 10.0 mi Variable 4.6 mph - N/A   Clear
2:53 PM 78.1 °F - 62.1 °F 58% 29.91 in 10.0 mi NNE 3.5 mph - N/A   Clear
3:53 PM 79.0 °F - 63.0 °F 58% 29.90 in 10.0 mi Variable 3.5 mph - N/A   Clear
4:53 PM 81.0 °F 82.5 °F 64.0 °F 56% 29.89 in 10.0 mi Calm Calm - N/A   Clear
5:53 PM 80.1 °F 81.2 °F 62.1 °F 54% 29.89 in 10.0 mi North 8.1 mph - N/A   Clear
6:53 PM 75.9 °F - 62.1 °F 62% 29.89 in 10.0 mi North 6.9 mph - N/A   Clear
7:53 PM 71.1 °F - 61.0 °F 70% 29.90 in 10.0 mi North 8.1 mph - N/A   Clear
8:53 PM 68.0 °F - 60.1 °F 76% 29.91 in 10.0 mi North 5.8 mph - N/A   Clear
9:53 PM 66.9 °F - 59.0 °F 76% 29.92 in 10.0 mi Calm Calm - N/A   Clear
10:53 PM 62.1 °F - 59.0 °F 90% 29.94 in 10.0 mi Calm Calm - N/A   Clear
11:53 PM 61.0 °F - 57.9 °F 90% 29.94 in 10.0 mi Calm Calm - N/A   Clear